EZY607W EGKK-LIRP

Flight info

Callsign EZY607W
Flight time N/A
Altitude 23000
Route SFD Y47 BENBO L612 XAMAB/N0427F370 UL612 OGULO DCT OKASI DCT OKEKO DCT MOU DCT MADIV DCT MOKIP DCT TUFTA DCT GEVEA DCT MOBLO DCT LURAG DCT OBUXA DCT ASTIG DCT TESTO DCT OTMUV DCT UNITA DCT TIDKA/N0342F190 L50 KONER
Aircraft A319/M-SDE2E3FGIJ1RWXYZ/LB1

Departure

Time 2026-04-14 16:21
Airport London Gatwick Airport (EGKK)

Arrival

Time N/A
Airport Pisa International Airport (LIRP)
Time Latitude Longitude Altitude Speed Heading
2026-04-14 15:39 51.15584 -0.17681 215 ft 0 kts 347°
2026-04-14 16:02 51.15580 -0.17680 204 ft 3 kts 347°
2026-04-14 16:02 51.15554 -0.17671 204 ft 4 kts 347°
2026-04-14 16:03 51.15529 -0.17664 216 ft 4 kts 18°
2026-04-14 16:03 51.15514 -0.17687 207 ft 3 kts 76°
2026-04-14 16:03 51.15509 -0.17717 204 ft 2 kts 77°
2026-04-14 16:03 51.15509 -0.17719 204 ft 0 kts 77°
2026-04-14 16:05 51.15510 -0.17716 204 ft 1 kts 77°
2026-04-14 16:06 51.15515 -0.17678 213 ft 5 kts 77°
2026-04-14 16:06 51.15526 -0.17600 210 ft 9 kts 77°
2026-04-14 16:06 51.15542 -0.17473 204 ft 13 kts 92°
2026-04-14 16:06 51.15459 -0.17404 209 ft 16 kts 167°
2026-04-14 16:07 51.15335 -0.17365 209 ft 20 kts 167°
2026-04-14 16:07 51.15212 -0.17275 211 ft 20 kts 146°
2026-04-14 16:07 51.15189 -0.17137 209 ft 14 kts 76°
2026-04-14 16:07 51.15208 -0.16996 208 ft 7 kts 78°
2026-04-14 16:08 51.15212 -0.16973 204 ft 0 kts 78°
2026-04-14 16:14 51.15213 -0.16964 212 ft 3 kts 78°
2026-04-14 16:15 51.15219 -0.16917 212 ft 5 kts 78°
2026-04-14 16:15 51.15219 -0.16916 204 ft 0 kts 78°
2026-04-14 16:15 51.15220 -0.16911 210 ft 1 kts 78°
2026-04-14 16:16 51.15221 -0.16906 204 ft 0 kts 78°
2026-04-14 16:18 51.15221 -0.16905 204 ft 1 kts 78°
2026-04-14 16:19 51.15223 -0.16869 204 ft 6 kts 91°
2026-04-14 16:19 51.15191 -0.16799 206 ft 11 kts 155°
2026-04-14 16:19 51.15121 -0.16820 205 ft 11 kts 237°
2026-04-14 16:19 51.15116 -0.16843 202 ft 0 kts 254°
2026-04-14 16:20 51.15116 -0.16844 202 ft 1 kts 254°
2026-04-14 16:20 51.15089 -0.17011 207 ft 50 kts 256°
2026-04-14 16:20 51.14964 -0.17964 206 ft 123 kts 258°
2026-04-14 16:20 51.14741 -0.19575 399 ft 161 kts 256°
2026-04-14 16:21 51.14496 -0.21346 1049 ft 166 kts 256°
2026-04-14 16:21 51.14235 -0.23167 1737 ft 175 kts 255°
2026-04-14 16:21 51.13950 -0.25136 2291 ft 190 kts 255°
2026-04-14 16:21 51.13629 -0.27303 2802 ft 212 kts 254°
2026-04-14 16:22 51.13258 -0.29687 3391 ft 233 kts 251°
2026-04-14 16:22 51.12417 -0.31962 3956 ft 249 kts 221°
2026-04-14 16:22 51.10885 -0.33256 4858 ft 255 kts 192°
2026-04-14 16:22 51.09113 -0.33164 5833 ft 261 kts 164°
2026-04-14 16:23 51.07452 -0.31916 6809 ft 267 kts 152°
2026-04-14 16:23 51.05881 -0.30470 7741 ft 271 kts 151°
2026-04-14 16:23 51.04426 -0.29108 8555 ft 275 kts 151°
2026-04-14 16:23 51.02760 -0.27544 9449 ft 280 kts 151°
2026-04-14 16:24 51.01065 -0.25956 10323 ft 286 kts 152°
2026-04-14 16:24 50.99146 -0.24734 10683 ft 309 kts 164°
2026-04-14 16:24 50.97046 -0.23721 11295 ft 320 kts 165°
2026-04-14 16:24 50.94890 -0.22690 12080 ft 326 kts 165°
2026-04-14 16:25 50.92702 -0.21643 12864 ft 331 kts 165°
2026-04-14 16:25 50.90482 -0.20577 13630 ft 336 kts 164°
2026-04-14 16:25 50.88229 -0.19493 14377 ft 341 kts 164°
2026-04-14 16:25 50.85942 -0.18394 15088 ft 347 kts 164°
2026-04-14 16:26 50.83623 -0.17283 15803 ft 351 kts 165°
2026-04-14 16:26 50.81271 -0.16156 16490 ft 355 kts 165°
2026-04-14 16:26 50.78889 -0.15018 17150 ft 360 kts 165°
2026-04-14 16:26 50.76479 -0.13868 17801 ft 364 kts 165°
2026-04-14 16:27 50.74037 -0.12704 18436 ft 369 kts 165°
2026-04-14 16:27 50.71564 -0.11526 19052 ft 373 kts 165°
2026-04-14 16:27 50.69065 -0.10332 19651 ft 378 kts 165°
2026-04-14 16:27 50.66537 -0.09121 20249 ft 382 kts 165°
2026-04-14 16:28 50.63982 -0.07902 20821 ft 386 kts 165°
2026-04-14 16:28 50.61394 -0.06676 21382 ft 391 kts 165°
2026-04-14 16:28 50.58776 -0.05441 21931 ft 395 kts 165°
2026-04-14 16:28 50.56130 -0.04193 22467 ft 399 kts 165°
2026-04-14 16:29 50.53455 -0.02930 22988 ft 403 kts 165°
2026-04-14 16:29 50.50753 -0.01653 23497 ft 407 kts 165°
2026-04-14 16:29 50.48027 -0.00363 24004 ft 411 kts 165°
2026-04-14 16:29 50.45317 0.01151 24476 ft 417 kts 156°
2026-04-14 16:30 50.42785 0.03422 24945 ft 422 kts 146°
2026-04-14 16:30 50.40332 0.05992 25393 ft 426 kts 146°
2026-04-14 16:30 50.37853 0.08572 25831 ft 430 kts 146°
2026-04-14 16:30 50.35347 0.11161 26257 ft 433 kts 146°
2026-04-14 16:31 50.32821 0.13760 26676 ft 436 kts 146°
2026-04-14 16:31 50.30275 0.16377 27087 ft 439 kts 146°
2026-04-14 16:31 50.27742 0.18974 27482 ft 443 kts 146°
2026-04-14 16:31 50.25124 0.21657 27873 ft 446 kts 146°
2026-04-14 16:32 50.22555 0.24290 28245 ft 450 kts 146°
2026-04-14 16:32 50.19929 0.26982 28634 ft 453 kts 146°
2026-04-14 16:32 50.17294 0.29691 29023 ft 455 kts 146°
2026-04-14 16:32 50.14646 0.32416 29378 ft 458 kts 146°
2026-04-14 16:33 50.11979 0.35162 29726 ft 461 kts 146°
2026-04-14 16:33 50.09296 0.37924 30085 ft 463 kts 146°
2026-04-14 16:33 50.06603 0.40697 30420 ft 465 kts 146°
2026-04-14 16:33 50.03893 0.43480 30722 ft 468 kts 146°
2026-04-14 16:34 50.01159 0.46272 31042 ft 471 kts 146°
2026-04-14 16:34 49.98409 0.49073 31358 ft 474 kts 146°
2026-04-14 16:34 49.96537 0.50976 31582 ft 476 kts 146°
2026-04-14 16:34 49.93761 0.53797 31919 ft 477 kts 146°
2026-04-14 16:35 49.90987 0.56610 32335 ft 476 kts 146°
2026-04-14 16:35 49.88253 0.59380 32740 ft 476 kts 146°
2026-04-14 16:35 49.85507 0.62240 33143 ft 475 kts 142°
2026-04-14 16:35 49.82934 0.65442 33545 ft 475 kts 140°
2026-04-14 16:36 49.80375 0.68673 33959 ft 474 kts 140°
2026-04-14 16:36 49.77820 0.71891 34366 ft 473 kts 140°
2026-04-14 16:36 49.75265 0.75101 34754 ft 473 kts 140°
2026-04-14 16:36 49.72715 0.78299 35120 ft 472 kts 140°
2026-04-14 16:37 49.70163 0.81493 35465 ft 472 kts 140°
2026-04-14 16:37 49.67611 0.84689 35799 ft 472 kts 140°
2026-04-14 16:37 49.65065 0.87877 36118 ft 471 kts 140°
2026-04-14 16:37 49.62520 0.91060 36430 ft 471 kts 140°
2026-04-14 16:38 49.59973 0.94231 36721 ft 471 kts 140°
2026-04-14 16:38 49.57424 0.97394 37054 ft 470 kts 140°
2026-04-14 16:38 49.54890 1.00531 37148 ft 464 kts 140°
2026-04-14 16:39 49.49905 1.06711 37167 ft 458 kts 140°
2026-04-14 16:39 49.44947 1.12849 37162 ft 457 kts 140°
2026-04-14 16:40 49.39995 1.18963 37162 ft 457 kts 140°
2026-04-14 16:40 49.35034 1.25068 37161 ft 457 kts 140°
2026-04-14 16:41 49.30077 1.31154 37160 ft 457 kts 140°
2026-04-14 16:41 49.25114 1.37234 37167 ft 457 kts 140°
2026-04-14 16:42 49.20150 1.43300 37163 ft 456 kts 140°
2026-04-14 16:42 49.15231 1.49294 37164 ft 455 kts 140°
2026-04-14 16:43 49.10234 1.55353 37169 ft 456 kts 140°
2026-04-14 16:43 49.05263 1.61365 37172 ft 456 kts 140°
2026-04-14 16:44 49.00322 1.67336 37178 ft 456 kts 140°
2026-04-14 16:44 48.95314 1.73376 37183 ft 456 kts 140°
2026-04-14 16:45 48.87876 1.82307 37184 ft 456 kts 140°
2026-04-14 16:45 48.82898 1.88272 37181 ft 456 kts 140°
2026-04-14 16:46 48.77882 1.94269 37194 ft 456 kts 140°
2026-04-14 16:46 48.72895 2.00203 37193 ft 456 kts 140°
2026-04-14 16:47 48.67941 2.06089 37196 ft 455 kts 140°
2026-04-14 16:47 48.62993 2.11939 37200 ft 455 kts 140°
2026-04-14 16:48 48.58012 2.17820 37199 ft 454 kts 140°
2026-04-14 16:48 48.53454 2.24364 37200 ft 452 kts 132°
2026-04-14 16:49 48.49033 2.31093 37198 ft 452 kts 133°
2026-04-14 16:49 48.44603 2.37804 37195 ft 451 kts 133°
2026-04-14 16:50 48.40169 2.44496 37186 ft 451 kts 133°
2026-04-14 16:50 48.35735 2.51166 37194 ft 451 kts 133°
2026-04-14 16:51 48.31296 2.57822 37193 ft 451 kts 133°
2026-04-14 16:51 48.26380 2.63657 37179 ft 453 kts 150°
2026-04-14 16:52 48.20688 2.67721 37179 ft 453 kts 153°
2026-04-14 16:52 48.15097 2.72081 37185 ft 453 kts 150°
2026-04-14 16:53 48.09596 2.76681 37179 ft 453 kts 150°
2026-04-14 16:53 48.03882 2.80670 37181 ft 453 kts 156°
2026-04-14 16:54 47.98079 2.84353 37182 ft 453 kts 156°
2026-04-14 16:54 47.92264 2.87995 37195 ft 453 kts 156°
2026-04-14 16:55 47.86465 2.91654 37197 ft 452 kts 156°
2026-04-14 16:55 47.80677 2.95316 37198 ft 452 kts 156°
2026-04-14 16:56 47.74885 2.98978 37201 ft 452 kts 156°
2026-04-14 16:56 47.69104 3.02621 37201 ft 451 kts 156°
2026-04-14 16:57 47.63322 3.06248 37200 ft 451 kts 156°
2026-04-14 16:57 47.57545 3.09855 37196 ft 451 kts 156°
2026-04-14 16:58 47.51769 3.13462 37198 ft 450 kts 156°
2026-04-14 16:58 47.45995 3.17057 37186 ft 450 kts 156°
2026-04-14 16:59 47.40229 3.20638 37181 ft 449 kts 156°
2026-04-14 16:59 47.34502 3.24193 37186 ft 449 kts 156°
2026-04-14 17:00 47.28733 3.27758 37194 ft 450 kts 156°
2026-04-14 17:00 47.22962 3.31309 37184 ft 449 kts 156°
2026-04-14 17:01 47.17191 3.34846 37193 ft 449 kts 156°
2026-04-14 17:01 47.11424 3.38384 37192 ft 449 kts 156°
2026-04-14 17:02 47.05659 3.41917 37194 ft 449 kts 156°
2026-04-14 17:02 46.99893 3.45446 37198 ft 448 kts 156°
2026-04-14 17:03 46.94133 3.48962 37194 ft 449 kts 156°
2026-04-14 17:03 46.88358 3.52472 37193 ft 449 kts 157°
2026-04-14 17:04 46.82580 3.55969 37195 ft 449 kts 157°
2026-04-14 17:04 46.76855 3.59599 37197 ft 448 kts 149°
2026-04-14 17:05 46.74287 3.62147 37196 ft 446 kts 138°
2026-04-14 17:05 46.72101 3.65322 37194 ft 443 kts 127°
2026-04-14 17:05 46.70364 3.68996 37191 ft 439 kts 116°
2026-04-14 17:05 46.69109 3.73023 37189 ft 435 kts 105°
2026-04-14 17:06 46.67586 3.81508 37186 ft 433 kts 101°
2026-04-14 17:06 46.66122 3.90019 37184 ft 433 kts 101°
2026-04-14 17:07 46.64659 3.98521 37180 ft 433 kts 101°
2026-04-14 17:07 46.63189 4.07029 37180 ft 433 kts 102°
2026-04-14 17:08 46.61711 4.15464 37184 ft 433 kts 102°
2026-04-14 17:08 46.60220 4.23957 37187 ft 433 kts 102°
2026-04-14 17:09 46.58730 4.32445 37190 ft 433 kts 102°
2026-04-14 17:09 46.57244 4.40922 37180 ft 433 kts 102°
2026-04-14 17:10 46.55736 4.49400 37182 ft 433 kts 102°
2026-04-14 17:10 46.54220 4.57875 37185 ft 432 kts 102°
2026-04-14 17:11 46.52707 4.66326 37190 ft 433 kts 102°
2026-04-14 17:11 46.51186 4.74799 37195 ft 434 kts 102°
2026-04-14 17:12 46.49655 4.83260 37193 ft 433 kts 102°
2026-04-14 17:12 46.48118 4.91703 37188 ft 433 kts 102°
2026-04-14 17:13 46.46578 5.00143 37194 ft 433 kts 103°
2026-04-14 17:13 46.45030 5.08579 37195 ft 433 kts 103°
2026-04-14 17:14 46.43481 5.17015 37195 ft 433 kts 103°
2026-04-14 17:14 46.41927 5.25441 37183 ft 432 kts 103°
2026-04-14 17:15 46.40368 5.33845 37184 ft 432 kts 103°
2026-04-14 17:15 46.38799 5.42243 37181 ft 431 kts 103°
2026-04-14 17:16 46.37232 5.50625 37183 ft 431 kts 103°
2026-04-14 17:16 46.35672 5.59005 37177 ft 431 kts 103°
2026-04-14 17:17 46.34105 5.67379 37180 ft 431 kts 103°
2026-04-14 17:17 46.32529 5.75747 37173 ft 431 kts 103°
2026-04-14 17:18 46.30950 5.84110 37176 ft 431 kts 104°
2026-04-14 17:18 46.29368 5.92463 37170 ft 431 kts 104°
2026-04-14 17:19 46.27771 6.00806 37174 ft 431 kts 104°
2026-04-14 17:19 46.26039 6.09087 37166 ft 432 kts 111°
2026-04-14 17:20 46.23523 6.15300 37162 ft 433 kts 128°
2026-04-14 17:20 46.19269 6.21445 37155 ft 434 kts 136°
2026-04-14 17:21 46.14844 6.27368 37152 ft 434 kts 136°
2026-04-14 17:21 46.10414 6.33275 37151 ft 434 kts 136°
2026-04-14 17:22 46.05980 6.39173 37151 ft 434 kts 136°
2026-04-14 17:22 46.01539 6.45071 37149 ft 435 kts 136°
2026-04-14 17:23 45.97098 6.50977 37149 ft 434 kts 136°
2026-04-14 17:23 45.92655 6.56860 37149 ft 434 kts 136°
2026-04-14 17:24 45.88209 6.62732 37146 ft 434 kts 136°
2026-04-14 17:24 45.83771 6.68586 37137 ft 433 kts 137°
2026-04-14 17:25 45.79326 6.74417 37126 ft 433 kts 137°
2026-04-14 17:25 45.74879 6.80228 37114 ft 432 kts 137°
2026-04-14 17:26 45.70428 6.86024 37067 ft 432 kts 137°
2026-04-14 17:26 45.65984 6.91791 37053 ft 431 kts 137°
2026-04-14 17:27 45.61554 6.97541 37037 ft 430 kts 137°
2026-04-14 17:27 45.57117 7.03269 37026 ft 430 kts 137°
2026-04-14 17:28 45.52830 7.09188 37012 ft 429 kts 128°
2026-04-14 17:28 45.49567 7.16273 37007 ft 428 kts 121°
2026-04-14 17:29 45.46417 7.23471 37005 ft 428 kts 121°
2026-04-14 17:29 45.43256 7.30658 37008 ft 428 kts 121°
2026-04-14 17:30 45.40113 7.37782 37006 ft 428 kts 122°
2026-04-14 17:30 45.36732 7.44810 37007 ft 427 kts 125°
2026-04-14 17:31 45.33248 7.51662 37008 ft 427 kts 125°
2026-04-14 17:31 45.29803 7.58464 37013 ft 427 kts 125°
2026-04-14 17:32 45.26362 7.65339 37016 ft 427 kts 124°
2026-04-14 17:32 45.22926 7.72209 37018 ft 427 kts 125°
2026-04-14 17:33 45.19494 7.79065 37017 ft 426 kts 125°
2026-04-14 17:34 45.14336 7.89339 37017 ft 426 kts 125°
2026-04-14 17:34 45.10887 7.96173 37018 ft 426 kts 125°
2026-04-14 17:35 45.07435 8.02998 37019 ft 426 kts 125°
2026-04-14 17:35 45.03977 8.09820 37031 ft 426 kts 126°
2026-04-14 17:36 45.00560 8.16512 37028 ft 426 kts 126°
2026-04-14 17:36 44.97095 8.23285 37030 ft 425 kts 126°
2026-04-14 17:37 44.93373 8.29766 37030 ft 425 kts 137°
2026-04-14 17:37 44.88754 8.34981 37023 ft 425 kts 142°
2026-04-14 17:38 44.84070 8.40087 37023 ft 426 kts 142°
2026-04-14 17:38 44.79383 8.45198 37022 ft 426 kts 142°
2026-04-14 17:39 44.74702 8.50305 37017 ft 426 kts 142°
2026-04-14 17:39 44.70011 8.55404 37010 ft 426 kts 142°
2026-04-14 17:40 44.65322 8.60496 37005 ft 426 kts 142°
2026-04-14 17:40 44.60634 8.65570 36999 ft 426 kts 142°
2026-04-14 17:41 44.55864 8.70490 36994 ft 425 kts 145°
2026-04-14 17:41 44.50977 8.75162 36973 ft 426 kts 146°
2026-04-14 17:42 44.46065 8.79819 36962 ft 426 kts 146°
2026-04-14 17:42 44.41169 8.84531 36955 ft 427 kts 145°
2026-04-14 17:43 44.36314 8.89247 36954 ft 428 kts 145°
2026-04-14 17:43 44.31423 8.93989 36954 ft 428 kts 145°
2026-04-14 17:44 44.26515 8.98708 36961 ft 429 kts 146°